Location: Amberg
(48.0613°N, 10.6820°E)
Time: 00:57:33
(UTC+00:00)

Cosmos 1484 Rocket - Pass Details

Date: 18 November 2025
Orbit: 443 x 473 km, 97.6° (Epoch: 05 December)

Event Time Altitude Azimuth Distance (km) Brightness Sun altitude
Rises 16:25:00 0° 181° (S) 2,498 6.5 -8.3°
Reaches altitude 10° 16:27:06 10° 188° (S) 1,631 5.6 -8.6°
Maximum altitude 16:30:27 42° 261° (W) 685 4.0 -9.2°
Drops below altitude 10° 16:33:52 10° 334° (NNW) 1,656 5.4 -9.7°
Sets 16:36:01 0° 341° (NNW) 2,542 6.2 -10.0°
